Location: Caltech
(34.1382°N, 118.1253°W)
Time: 23:47:54
(UTC-07:00)

Cosmos 1833 - Visible Passes

Search period start: 24 April 2018 00:00
Search period end: 04 May 2018 00:00
Orbit: 828 x 871 km, 70.9° (Epoch: 24 April)

Date Brightness Start Highest point End Pass type
(mag) Time Alt. Az. Time Alt. Az. Time Alt. Az.
24 Apr 5.5 03:28:46 29° SE 03:30:13 32° ESE 03:35:18 10° NE visible
24 Apr 5.2 05:10:47 17° WSW 05:14:21 31° WNW 05:19:26 10° N visible
25 Apr 5.5 03:16:45 31° ESE 03:17:31 32° ESE 03:22:35 10° NE visible
25 Apr 5.2 04:58:45 20° WSW 05:01:39 31° WNW 05:06:44 10° N visible
26 Apr 5.5 03:04:40 32° ESE 03:04:49 32° ESE 03:09:52 10° NE visible
26 Apr 5.2 04:46:40 24° W 04:48:56 31° WNW 04:54:02 10° N visible
27 Apr 5.6 02:52:31 31° E 02:52:31 31° E 02:57:09 10° NE visible
27 Apr 5.2 04:34:31 27° W 04:36:14 31° WNW 04:41:20 10° N visible
28 Apr 5.7 02:40:20 30° E 02:40:20 30° E 02:44:26 10° NE visible
28 Apr 5.1 04:22:19 29° W 04:23:32 32° WNW 04:28:39 10° N visible
29 Apr 5.9 02:28:05 28° ENE 02:28:05 28° ENE 02:31:43 10° NE visible
29 Apr 5.1 04:10:04 31° WNW 04:10:49 32° WNW 04:15:57 10° N visible
30 Apr 6.0 02:15:48 26° ENE 02:15:48 26° ENE 02:19:00 10° NE visible
30 Apr 5.1 03:57:47 32° WNW 03:58:07 32° WNW 04:03:15 10° N visible
01 May 6.1 02:03:28 24° ENE 02:03:28 24° ENE 02:06:17 10° NE visible
01 May 5.2 03:45:27 32° WNW 03:45:27 32° WNW 03:50:33 10° N visible
02 May 6.2 01:51:06 22° ENE 01:51:06 22° ENE 01:53:34 10° NE visible
02 May 5.3 03:33:05 32° NW 03:33:05 32° NW 03:37:51 10° N visible
03 May 6.3 01:38:42 20° ENE 01:38:42 20° ENE 01:40:50 10° NE visible
03 May 5.3 03:20:41 32° NW 03:20:41 32° NW 03:25:10 10° N visible
